Weather History for Rawlins, WY

Change the Weather History Date:

Friday, September 20, 2013

  Actual Average Record
Temperature  
Mean Temperature 51 °F 54 °F  
Max Temperature 72 °F 69 °F 82 °F (1956)
Min Temperature 29 °F 38 °F 13 °F (1965)
Degree Days  
Heating Degree Days 14 11  
Month to date heating degree days 82 154  
Since 1 July heating degree days 90 247  
Cooling Degree Days 0 0  
Month to date cooling degree days 49 2  
Year to date cooling degree days 371 183  
Growing Degree Days 0 (Base 50)    
Moisture  
Dew Point 23 °F    
Average Humidity 49    
Maximum Humidity 85    
Minimum Humidity 12    
Precipitation  
Precipitation 0.00 in 0.04 in 0.30 in (2004)
Month to date precipitation 2.07 0.63  
Year to date precipitation 5.84 7.18  
Sea Level Pressure  
Sea Level Pressure 30.04 in    
Wind  
Wind Speed 6 mph (SSW)    
Max Wind Speed 21 mph    
Max Gust Speed 29 mph    
Visibility 10 miles    
Events      
T = Trace of Precipitation, MM = Missing Value Source: NWS Daily Summary

Daily Weather History Graph

Daily Weather History Graph

Search for Another Location

Airport:

Trip Planner

Search our weather history database for the weather conditions in past years. The results will help you decide how hot, cold, wet, or windy it might be!

Date:

Astronomy

Sep. 20, 2013 Rise Set
Actual Time 6:54 AM MDT 7:08 PM MDT
Civil Twilight 6:26 AM MDT 7:36 PM MDT
Nautical Twilight 5:53 AM MDT 8:09 PM MDT
Astronomical Twilight 5:20 AM MDT 8:42 PM MDT
Moon 7:42 PM MDT 8:14 AM MDT
Length of Visible Light 13h 10m
Length of Day
12h 14m
Full, 98% of the Moon is Illuminated
Sep 20
Full
Sep 26
Last Quarter
Oct 4
New
Oct 11
First Quarter
Oct 18
Full

Hourly Weather History & Observations

Time (MDT) Temp. Windchill Dew Point Humidity Pressure Visibility Wind Dir Wind Speed Gust Speed Precip Events Conditions
12:53 AM 36.0 °F - 28.0 °F 73% 30.14 in 10.0 mi Calm Calm - N/A   Clear
4:53 AM 30.0 °F - 26.1 °F 85% 30.14 in 10.0 mi Calm Calm - N/A   Clear
5:53 AM 30.0 °F - 26.1 °F 85% 30.14 in 10.0 mi Calm Calm - N/A   Clear
6:53 AM 28.9 °F - 25.0 °F 85% 30.16 in 10.0 mi Calm Calm - N/A   Clear
7:53 AM 37.0 °F - 27.0 °F 67% 30.17 in 10.0 mi Calm Calm - N/A   Clear
8:53 AM 43.0 °F 40.3 °F 28.0 °F 56% 30.17 in 10.0 mi ESE 4.6 mph - N/A   Clear
9:53 AM 48.9 °F - 27.0 °F 43% 30.14 in 10.0 mi ESE 3.5 mph - N/A   Clear
10:53 AM 55.0 °F - 26.1 °F 33% 30.11 in 10.0 mi Calm Calm - N/A   Clear
11:53 AM 64.0 °F - 26.1 °F 24% 30.05 in 10.0 mi SW 15.0 mph 19.6 mph N/A   Clear
12:53 PM 66.0 °F - 17.1 °F 15% 30.03 in 10.0 mi WSW 13.8 mph - N/A   Clear
1:53 PM 69.1 °F - 19.0 °F 15% 29.99 in 10.0 mi WSW 18.4 mph 28.8 mph N/A   Clear
2:53 PM 70.0 °F - 18.0 °F 14% 29.98 in 10.0 mi SW 13.8 mph 20.7 mph N/A   Clear
3:53 PM 71.1 °F - 18.0 °F 13% 29.97 in 10.0 mi SSW 16.1 mph 26.5 mph N/A   Clear
4:53 PM 71.1 °F - 15.1 °F 12% 29.95 in 10.0 mi SSW 13.8 mph 23.0 mph N/A   Clear
5:53 PM 69.1 °F - 18.0 °F 14% 29.96 in 10.0 mi SW 16.1 mph - N/A   Clear
6:53 PM 64.0 °F - 19.9 °F 18% 29.98 in 10.0 mi SW 6.9 mph - N/A   Clear
7:40 PM 57.2 °F - 23.0 °F 27% 30.11 in 10.0 mi SW 4.6 mph - N/A   Partly Cloudy
7:53 PM 57.0 °F - 21.0 °F 25% 29.98 in 10.0 mi SW 6.9 mph - N/A   Clear
8:53 PM 55.9 °F - 19.9 °F 25% 29.96 in 10.0 mi Calm Calm - N/A   Clear
9:53 PM 54.0 °F - 19.9 °F 26% 29.95 in 10.0 mi WSW 3.5 mph - N/A   Clear
10:53 PM 50.0 °F - 23.0 °F 35% 29.93 in 10.0 mi South 5.8 mph - N/A   Clear
11:53 PM 45.0 °F 41.8 °F 24.1 °F 44% 29.92 in 10.0 mi ESE 5.8 mph - N/A   Clear